"Pseudo-MPEC" for P129veb

Created 2025 Apr 28 6:31:09 UT using Find_Orb

Click here for an explanation of pseudo-MPECs

 
 Astrometry: 
     P129veb* C2025 04 26.51973514 14 08.831+20 22 36.12   ~4QEV 22.31wXNEOCPF51
     P129veb  C2025 04 26.53249014 14 09.090+20 22 33.38   ~4QEV 22.20wXNEOCPF51
     P129veb  C2025 04 26.55804914 14 09.658+20 22 26.75   ~4QEV 22.44wXNEOCPF51
     P129veb KC2025 04 26.61632714 14 11.059+20 22 11.63   ~4QH2 22.17GVNEOCPF52
     P129veb KC2025 04 27.20191814 14 29.332+20 19 47.96   ~4R5l       VNEOCPV06
     P129veb KC2025 04 27.20995914 14 29.497+20 19 45.70   ~4R5l 22.37GVNEOCPV06
     P129veb KC2025 04 27.22241914 14 29.756+20 19 43.00   ~4R5l 22.75GVNEOCPV06

Station data:
(F51) Pan-STARRS 1, Haleakala  (N20.707234 W156.255910)  US/Hawaii.
   Observers J. Bulger, T. Lowe, A. Schultz, M. Willman. Measurers K.
   Chambers, S. Chastel, T. de Boer, L. Denneau, J. Fairlamb, H. Flewelling,
   M. Huber, C.-C. Lin, E. Magnier, Y. Ramanjooloo, R. Wainscoat, R. Weryk.
   1.8-m Ritchey-Chrétien + CCD.
(F52) Pan-STARRS 2, Haleakala  (N20.707382 W156.255910)  US/Hawaii.
   Observers J. Bulger, T. Dukes, T. Lowe, A. Schultz, M. Willman. Measurers
   K. Chambers, S. Chastel, T. de Boer, L. Denneau, J. Fairlamb, H.
   Flewelling, M. Huber, C.-C. Lin, E. Magnier, Y. Ramanjooloo, R. Wainscoat,
   R. Weryk. 1.8-m Ritchey-Chrétien + CCD.
(V06) Catalina Sky Survey-Kuiper  (N32.416871 W110.732550)  US/Arizona.
   Observers T. A. Pruyne, B. M. Africano, E. J. Christensen, G. A. Farneth,
   D. C. Fuls, A. R. Gibbs, A. D. Grauer, H. Gröller, J. A. Johnson, R. A.
   Kowalski, S. M. Larson, G. J. Leonard, D. Rankin, R. L. Seaman, F. C.
   Shelly, K. W. Wierzchoś. 1.55-m reflector + CCD.

Orbital elements:  P129veb
   Perihelion 2025 Apr 2.73458 +/- 25.5 TT = 17:37:48 (JD 2460768.23458)
Epoch 2025 Apr 27.0 TT = JDT 2460792.5   Earth MOID: 0.4217   Ju: 0.7813
M   4.86431425 +/- 3.4              Ma: 0.0657                   AutoNEOCP
n   0.20046284 +/- 0.0568           Peri.   54.50463 +/- 35
a   2.89143516 +/- 0.546            Node   140.85969 +/- 16
e   0.5203695 +/- 0.0915            Incl.   10.33392 +/- 1.2
P   4.91666                H 22.29  G  0.15   U 10.8  SR
q 1.38682029 +/- 0.0299    Q 4.39605003 +/- 2.05          (J2000 ecliptic)
From 7 observations 2025 Apr. 26-27 (16.9 hr); mean residual 0".15
Residuals in arcseconds: 
250426 F51  .06+  .25-    250426 F52  .20+  .10+    250427 V06  .21-  .03+    
250426 F51  .15-  .17+    250427 V06  .13+  .12+    
250426 F51  .10-  .00     250427 V06  .04-  .24-    

Ephemerides (geocentric):
Date (UTC) HH   RA             Dec           delta  r     elong  mag " sig PA
---- --------  ------------   ------------  ------ ------ -----  --- --------
2025 04 28 07  14 14 58.951   +20 14 47.31  .46235 1.4126 145.6 22.5 4.63  57
2025 04 28 08  14 15 00.105   +20 14 34.58  .46247 1.4127 145.6 22.5 4.93  56
2025 04 28 09  14 15 01.259   +20 14 21.78  .46259 1.4127 145.5 22.5 5.24  55
2025 04 28 10  14 15 02.412   +20 14 08.90  .46271 1.4128 145.5 22.5 5.55  54
2025 04 28 11  14 15 03.565   +20 13 55.94  .46283 1.4129 145.5 22.5 5.88  54
2025 04 28 12  14 15 04.718   +20 13 42.91  .46295 1.4130 145.5 22.5 6.22  53
2025 04 28 13  14 15 05.870   +20 13 29.80  .46307 1.4131 145.5 22.5 6.58  53
2025 04 28 14  14 15 07.022   +20 13 16.62  .46319 1.4132 145.5 22.5 6.94  52
2025 04 28 15  14 15 08.174   +20 13 03.36  .46331 1.4132 145.5 22.5 7.32  52
2025 04 28 16  14 15 09.326   +20 12 50.02  .46343 1.4133 145.5 22.5 7.70  51
2025 04 28 17  14 15 10.477   +20 12 36.61  .46355 1.4134 145.5 22.5 8.10  51
2025 04 28 18  14 15 11.628   +20 12 23.12  .46367 1.4135 145.4 22.5 8.51  50
2025 04 28 19  14 15 12.779   +20 12 09.56  .46380 1.4136 145.4 22.5 8.93  50
2025 04 28 20  14 15 13.929   +20 11 55.92  .46392 1.4137 145.4 22.5 9.36  50
2025 04 28 21  14 15 15.079   +20 11 42.21  .46404 1.4137 145.4 22.5 9.80  49
2025 04 28 22  14 15 16.229   +20 11 28.41  .46416 1.4138 145.4 22.5 10.3  49
2025 04 28 23  14 15 17.379   +20 11 14.55  .46428 1.4139 145.4 22.5 10.7  49
2025 04 29 00  14 15 18.529   +20 11 00.61  .46440 1.4140 145.4 22.5 11.2  48
2025 04 29 01  14 15 19.678   +20 10 46.59  .46453 1.4141 145.4 22.5 11.7  48
2025 04 29 02  14 15 20.827   +20 10 32.50  .46465 1.4142 145.4 22.5 12.2  48
2025 04 29 03  14 15 21.976   +20 10 18.33  .46477 1.4142 145.3 22.5 12.7  48
2025 04 29 04  14 15 23.125   +20 10 04.08  .46489 1.4143 145.3 22.5 13.2  48
2025 04 29 05  14 15 24.273   +20 09 49.76  .46502 1.4144 145.3 22.5 13.8  47
2025 04 29 06  14 15 25.421   +20 09 35.37  .46514 1.4145 145.3 22.5 14.3  47
2025 04 29 07  14 15 26.570   +20 09 20.90  .46526 1.4146 145.3 22.5 14.9  47
2025 04 29 08  14 15 27.717   +20 09 06.35  .46539 1.4147 145.3 22.5 15.4  47
2025 04 29 09  14 15 28.865   +20 08 51.73  .46551 1.4148 145.3 22.5 16.0  47
2025 04 29 10  14 15 30.013   +20 08 37.04  .46564 1.4148 145.3 22.5 16.6  47
2025 04 29 11  14 15 31.160   +20 08 22.27  .46576 1.4149 145.2 22.5 17.2  46
2025 04 29 12  14 15 32.308   +20 08 07.42  .46588 1.4150 145.2 22.5 17.8  46
2025 04 29 13  14 15 33.455   +20 07 52.50  .46601 1.4151 145.2 22.5 18.4  46
2025 04 29 14  14 15 34.602   +20 07 37.50  .46613 1.4152 145.2 22.5 19.1  46
2025 04 29 15  14 15 35.748   +20 07 22.43  .46626 1.4153 145.2 22.5 19.7  46
2025 04 29 16  14 15 36.895   +20 07 07.29  .46638 1.4154 145.2 22.5 20.4  46
2025 04 29 17  14 15 38.042   +20 06 52.07  .46651 1.4155 145.2 22.5 21.0  46
2025 04 29 18  14 15 39.188   +20 06 36.77  .46664 1.4155 145.2 22.5 21.7  46
2025 04 29 19  14 15 40.334   +20 06 21.40  .46676 1.4156 145.2 22.5 22.4  45
2025 04 29 20  14 15 41.481   +20 06 05.96  .46689 1.4157 145.1 22.5 23.1  45
2025 04 29 21  14 15 42.627   +20 05 50.44  .46701 1.4158 145.1 22.5 23.9  45
2025 04 29 22  14 15 43.773   +20 05 34.85  .46714 1.4159 145.1 22.5 24.6  45
2025 04 29 23  14 15 44.919   +20 05 19.18  .46727 1.4160 145.1 22.5 25.3  45
2025 04 30 00  14 15 46.064   +20 05 03.44  .46739 1.4161 145.1 22.5 26.1  45
2025 04 30 01  14 15 47.210   +20 04 47.62  .46752 1.4162 145.1 22.5 26.8  45
2025 04 30 02  14 15 48.356   +20 04 31.73  .46765 1.4162 145.1 22.5 27.6  45
2025 04 30 03  14 15 49.501   +20 04 15.77  .46777 1.4163 145.1 22.5 28.4  45
2025 04 30 04  14 15 50.647   +20 03 59.73  .46790 1.4164 145.1 22.5 29.2  45
2025 04 30 05  14 15 51.792   +20 03 43.62  .46803 1.4165 145.0 22.5 30.0  45
2025 04 30 06  14 15 52.938   +20 03 27.43  .46816 1.4166 145.0 22.5 30.8  45